sat.trackr.live / text

‹ back to catalog

STARLINK-34877

NORAD 65630 · 2025-210J

PAYLOAD ACTIVE UNKNOWN

§ Identity

Operator
Country
US
Launch date
2025-09-18
Launch site
AFETR
Launch vehicle
Mass (kg)
RCS (m²)

Purposes: comms

External: N2YO · Heavens-Above · Gunter

§ Orbital elements

Epoch: 2026-09-20T22:12:14.876352Z

Period
93.85 min
Inclination
53.1588°
Eccentricity
0.0000998
Mean motion
15.34410200 rev/d
Perigee alt
462.0 km
Apogee alt
463.4 km
Semi-major
6,840.8 km
B*
4.3909e-4
RAAN
115.8990°
Arg perigee
101.8471°
Mean anomaly
258.2644°
Rev number
5,768

§ Raw data

STARLINK-348771 65630U 25210J   26263.92517218  .00014493  00000+0  43909-3 0  99922 65630  53.1588 115.8990 0000998 101.8471 258.2644 15.34410200 57680

JSON: /api/v1/satellites/65630 · /tle

For live sub-satellite position, see the globe view (requires WebGL).

§ Visibility from observer

Set your observer location to see the next 7 days of passes ≥ 10°. The values pass through the URL so the page stays shareable.

No JS? Fill the form by hand. The geolocation button needs JavaScript.